Gene Autry, OK

2:12 AM CDT on August 26, 2016 (GMT -0500)
Ardmore Municipal

Weather History for KADM - February, 2013

Change the Weather History Date:

Saturday, February 23, 2013

  Actual Average Record
Temperature  
Mean Temperature 37 °F -  
Max Temperature 48 °F 55 °F 75 °F (2012)
Min Temperature 26 °F 37 °F 23 °F (2015)
Degree Days  
Heating Degree Days 28    
Moisture  
Dew Point 25 °F    
Average Humidity 82    
Maximum Humidity 100    
Minimum Humidity 40    
Precipitation  
Precipitation 0.00 in - - ()
Sea Level Pressure  
Sea Level Pressure 30.04 in    
Wind  
Wind Speed 5 mph (North)    
Max Wind Speed 9 mph    
Max Gust Speed -    
Visibility 10 miles    
Events      
Averages and records for this station are not official NWS values.
T = Trace of Precipitation, MM = Missing Value Source: NWS Daily Summary

Daily Weather History Graph

Daily Weather History Graph

Search for Another Location

Airport or City:

Trip Planner

Search our weather history database for the weather conditions in past years. The results will help you decide how hot, cold, wet, or windy it might be!

Date:

Astronomy

Feb. 23, 2013 Rise Set
Actual Time 7:03 AM CST 6:19 PM CST
Civil Twilight 6:38 AM CST 6:44 PM CST
Nautical Twilight 6:09 AM CST 7:13 PM CST
Astronomical Twilight 5:40 AM CST 7:42 PM CST
Moon 4:33 PM CST (2/23) 5:23 AM CST (2/23)
Length of Visible Light 12h 06m
Length of Day
11h 15m
Waxing Gibbous, 95% of the Moon is Illuminated
Feb 23
Waxing Gibbous
Feb 25
Full
Mar 4
Last Quarter
Mar 11
New
Mar 19
First Quarter

Hourly Weather History & Observations

Time (CST) Temp. Windchill Dew Point Humidity Pressure Visibility Wind Dir Wind Speed Gust Speed Precip Events Conditions
12:15 AM 32.0 °F 24.8 °F 26.6 °F 80% 30.12 in 10.0 mi North 8.1 mph - N/A   Clear
12:35 AM 30.2 °F 23.4 °F 24.8 °F 80% 30.11 in 10.0 mi North 6.9 mph - N/A   Clear
12:55 AM 30.2 °F 22.6 °F 24.8 °F 80% 30.11 in 10.0 mi North 8.1 mph - N/A   Clear
1:15 AM 30.2 °F 21.9 °F 24.8 °F 80% 30.10 in 10.0 mi North 9.2 mph - N/A   Clear
1:35 AM 30.2 °F 23.4 °F 24.8 °F 80% 30.10 in 10.0 mi NNE 6.9 mph - N/A   Clear
1:55 AM 30.2 °F 22.6 °F 24.8 °F 80% 30.09 in 10.0 mi NNE 8.1 mph - N/A   Clear
2:15 AM 30.2 °F 24.3 °F 24.8 °F 80% 30.09 in 10.0 mi NNE 5.8 mph - N/A   Clear
2:35 AM 28.4 °F 22.2 °F 24.8 °F 86% 30.09 in 10.0 mi North 5.8 mph - N/A   Clear
2:55 AM 28.4 °F - 23.0 °F 80% 30.07 in 10.0 mi Calm Calm - N/A   Clear
3:15 AM 28.4 °F 21.2 °F 23.0 °F 80% 30.05 in 10.0 mi NNE 6.9 mph - N/A   Clear
3:35 AM 28.4 °F - 23.0 °F 80% 30.05 in 10.0 mi Calm Calm - N/A   Clear
3:55 AM 28.4 °F - 23.0 °F 80% 30.06 in 10.0 mi Calm Calm - N/A   Clear
4:15 AM 26.6 °F - 23.0 °F 86% 30.04 in 10.0 mi Calm Calm - N/A   Clear
4:35 AM 28.4 °F 21.2 °F 23.0 °F 80% 30.04 in 10.0 mi North 6.9 mph - N/A   Clear
4:55 AM 28.4 °F 20.4 °F 23.0 °F 80% 30.04 in 10.0 mi North 8.1 mph - N/A   Clear
5:15 AM 28.4 °F - 23.0 °F 80% 30.05 in 10.0 mi Calm Calm - N/A   Clear
5:35 AM 26.6 °F 22.6 °F 23.0 °F 86% 30.05 in 10.0 mi North 3.5 mph - N/A   Clear
7:55 AM 26.6 °F - 23.0 °F 86% 30.07 in 10.0 mi Calm Calm - N/A   Clear
12:55 PM 48.2 °F - 24.8 °F 40% 30.02 in 10.0 mi Calm Calm - N/A   Clear
10:35 PM 32.0 °F - 30.2 °F 93% 29.95 in 10.0 mi Calm Calm - N/A   Clear
10:55 PM 32.0 °F - 28.4 °F 87% 29.95 in 10.0 mi Calm Calm - N/A   Clear
11:15 PM 32.0 °F - 30.2 °F 93% 29.95 in 10.0 mi Calm Calm - N/A   Clear
11:35 PM 30.2 °F - 30.2 °F 100% 29.93 in 10.0 mi Calm Calm - N/A   Clear
11:55 PM 28.4 °F - 26.6 °F 93% 29.92 in 10.0 mi Calm Calm - N/A   Clear